Location: Boca de Tacagua
(10.5333°N, 66.9833°W)
Time: 05:45:22
(UTC+00:00)

PRISM - Visible Passes

Search period start: 23 March 2023 00:00
Search period end: 02 April 2023 00:00
Orbit: 542 x 565 km, 98.2° (Epoch: 22 March)

Date Brightness Start Highest point End Pass type
(mag) Time Alt. Az. Time Alt. Az. Time Alt. Az.
23 Mar ? 09:55:37 10° NE 09:58:53 24° E 10:02:09 10° SSE visible
24 Mar ? 09:52:34 10° NE 09:55:39 21° E 09:58:44 10° SSE visible
25 Mar ? 09:49:31 10° NE 09:52:23 19° E 09:55:16 10° SE visible
26 Mar ? 09:46:29 10° ENE 09:49:06 17° E 09:51:42 10° SE visible
27 Mar ? 09:43:27 10° ENE 09:45:46 15° E 09:48:04 10° SE visible
27 Mar ? 23:23:10 10° WSW 23:24:07 11° W 23:25:04 10° W visible
28 Mar ? 09:40:29 10° ENE 09:42:25 13° E 09:44:19 10° SE visible
28 Mar ? 23:19:06 10° SW 23:20:44 12° W 23:22:23 10° WNW visible
29 Mar ? 09:37:39 10° E 09:39:02 11° E 09:40:24 10° ESE visible
29 Mar ? 23:15:14 10° SW 23:17:20 14° W 23:19:26 10° WNW visible
30 Mar ? 23:11:27 10° SW 23:13:53 16° W 23:16:21 10° WNW visible
31 Mar ? 23:07:42 10° SW 23:10:25 18° W 23:13:10 10° NW visible
01 Apr ? 23:03:58 10° SSW 23:06:56 21° W 23:09:54 10° NW visible
